• In United Kingdom
  • List of Countries
  • For 7 days
  • Water Temperature
  • Satellite Maps
  • Weather Map
  • Weather Widgets
  • user-avatar
    Login

    Hourly Weather Sopron

    Today, 21 September, Thursday

    Time Temperature Precipitation Wind Pressure Humidity
    00:00 +9°C° 0 mm 5 mps 746 mmHg 80%
    01:00 +9°C° 0 mm 5 mps 746 mmHg 78%
    02:00 +9°C° 0 mm 6 mps 746 mmHg 78%
    03:00 +9°C° 0 mm 6 mps 746 mmHg 79%
    04:00 +9°C° 0 mm 6 mps 746 mmHg 80%
    05:00 +9°C° 0 mm 7 mps 746 mmHg 79%
    06:00 +9°C° 0 mm 7 mps 746 mmHg 79%
    07:00 +10°C° 0 mm 6 mps 746 mmHg 79%
    08:00 +11°C° 0 mm 7 mps 746 mmHg 75%
    09:00 +12°C° 0 mm 7 mps 746 mmHg 70%
    10:00 +13°C° 0 mm 8 mps 746 mmHg 66%
    11:00 +14°C° 0.1 mm 7 mps 746 mmHg 65%
    12:00 +15°C° 0.1 mm 7 mps 746 mmHg 63%
    13:00 +15°C° 0.1 mm 7 mps 746 mmHg 62%
    14:00 +15°C° 0.1 mm 6 mps 746 mmHg 64%
    15:00 +15°C° 0.1 mm 5 mps 746 mmHg 67%
    16:00 +14°C° 0.1 mm 4 mps 745 mmHg 69%
    17:00 +14°C° 0.1 mm 4 mps 746 mmHg 73%
    18:00 +13°C° 0.1 mm 3 mps 746 mmHg 76%
    19:00 +12°C° 0.1 mm 3 mps 746 mmHg 80%
    20:00 +12°C° 0.1 mm 3 mps 746 mmHg 81%
    21:00 +11°C° 0.1 mm 3 mps 747 mmHg 82%
    22:00 +11°C° 0.1 mm 3 mps 747 mmHg 84%
    23:00 +11°C° 0 mm 3 mps 747 mmHg 84%

    Tomorrow, 22 September, Friday

    Time Temperature Precipitation Wind Pressure Humidity
    00:00 +11°C° 0 mm 3 mps 747 mmHg 85%
    01:00 +10°C° 0 mm 3 mps 747 mmHg 85%
    02:00 +10°C° 0 mm 3 mps 747 mmHg 86%
    03:00 +10°C° 0 mm 3 mps 747 mmHg 86%
    04:00 +10°C° 0 mm 3 mps 747 mmHg 86%
    05:00 +10°C° 0 mm 3 mps 747 mmHg 85%
    06:00 +11°C° 0 mm 3 mps 747 mmHg 84%
    07:00 +11°C° 0 mm 3 mps 748 mmHg 82%
    08:00 +13°C° 0 mm 4 mps 748 mmHg 77%
    09:00 +14°C° 0 mm 4 mps 748 mmHg 71%
    10:00 +17°C° 0 mm 4 mps 748 mmHg 66%
    11:00 +17°C° 0 mm 4 mps 748 mmHg 63%
    12:00 +18°C° 0 mm 4 mps 748 mmHg 59%
    13:00 +19°C° 0 mm 4 mps 748 mmHg 56%
    14:00 +19°C° 0.2 mm 3 mps 748 mmHg 59%
    15:00 +18°C° 0.2 mm 3 mps 748 mmHg 63%
    16:00 +17°C° 0.2 mm 3 mps 748 mmHg 67%
    17:00 +16°C° 0.1 mm 3 mps 748 mmHg 72%
    18:00 +15°C° 0.1 mm 2 mps 748 mmHg 77%
    19:00 +14°C° 0.1 mm 2 mps 749 mmHg 81%
    20:00 +13°C° 0 mm 2 mps 749 mmHg 82%
    21:00 +13°C° 0 mm 2 mps 749 mmHg 83%
    22:00 +12°C° 0 mm 2 mps 749 mmHg 84%
    23:00 +12°C° 0 mm 2 mps 750 mmHg 85%

    Day after tomorrow, 23 September, Saturday

    Time Temperature Precipitation Wind Pressure Humidity
    00:00 +12°C° 0 mm 2 mps 750 mmHg 85%
    01:00 +12°C° 0 mm 2 mps 750 mmHg 86%
    02:00 +10°C° 0 mm 2 mps 750 mmHg 87%
    03:00 +10°C° 0 mm 2 mps 749 mmHg 87%
    04:00 +10°C° 0 mm 2 mps 749 mmHg 88%
    05:00 +10°C° 0 mm 3 mps 749 mmHg 87%
    06:00 +11°C° 0 mm 3 mps 749 mmHg 85%
    07:00 +11°C° 0 mm 3 mps 749 mmHg 83%
    08:00 +13°C° 0 mm 3 mps 749 mmHg 76%
    09:00 +15°C° 0 mm 4 mps 749 mmHg 68%
    10:00 +17°C° 0 mm 5 mps 749 mmHg 60%
    11:00 +17°C° 0.1 mm 5 mps 748 mmHg 59%
    12:00 +19°C° 0.1 mm 5 mps 748 mmHg 58%
    13:00 +19°C° 0.1 mm 4 mps 748 mmHg 56%
    14:00 +18°C° 0.4 mm 4 mps 747 mmHg 62%
    15:00 +17°C° 0.4 mm 3 mps 747 mmHg 68%
    16:00 +16°C° 0.4 mm 3 mps 747 mmHg 74%
    17:00 +16°C° 0.7 mm 3 mps 747 mmHg 78%
    18:00 +14°C° 0.7 mm 3 mps 747 mmHg 82%
    19:00 +13°C° 0.7 mm 3 mps 747 mmHg 87%
    20:00 +13°C° 0.3 mm 3 mps 747 mmHg 87%
    21:00 +13°C° 0.3 mm 3 mps 747 mmHg 88%
    22:00 +13°C° 0.3 mm 3 mps 747 mmHg 88%
    23:00 +13°C° 0.2 mm 3 mps 747 mmHg 88%

    24 September, Sunday

    Time Temperature Precipitation Wind Pressure Humidity
    00:00 +13°C° 0.2 mm 3 mps 747 mmHg 89%
    01:00 +13°C° 0.2 mm 3 mps 746 mmHg 89%
    02:00 +13°C° 0.3 mm 3 mps 746 mmHg 89%
    03:00 +13°C° 0.3 mm 3 mps 746 mmHg 89%
    04:00 +13°C° 0.3 mm 3 mps 746 mmHg 90%
    05:00 +14°C° 0.4 mm 2 mps 746 mmHg 90%
    06:00 +13°C° 0.4 mm 2 mps 746 mmHg 90%
    07:00 +13°C° 0.4 mm 2 mps 746 mmHg 91%
    08:00 +14°C° 0.6 mm 2 mps 746 mmHg 91%
    09:00 +14°C° 0.6 mm 2 mps 746 mmHg 91%
    10:00 +14°C° 0.6 mm 2 mps 746 mmHg 91%
    11:00 +14°C° 1 mm 2 mps 746 mmHg 91%
    12:00 +14°C° 1 mm 2 mps 746 mmHg 90%
    13:00 +14°C° 1 mm 2 mps 746 mmHg 90%
    14:00 +14°C° 0.8 mm 2 mps 746 mmHg 90%
    15:00 +14°C° 0.8 mm 2 mps 746 mmHg 90%
    16:00 +14°C° 0.8 mm 1 mps 746 mmHg 90%
    17:00 +14°C° 0.3 mm 1 mps 746 mmHg 91%
    18:00 +13°C° 0.3 mm 1 mps 746 mmHg 92%
    19:00 +13°C° 0.3 mm 1 mps 746 mmHg 93%
    20:00 +13°C° 0.5 mm 1 mps 746 mmHg 93%
    21:00 +13°C° 0.5 mm 1 mps 747 mmHg 93%
    22:00 +13°C° 0.5 mm 1 mps 747 mmHg 93%
    23:00 +13°C° 0.2 mm 1 mps 747 mmHg 93%

    25 September, Monday

    Time Temperature Precipitation Wind Pressure Humidity
    00:00 +13°C° 0.2 mm 2 mps 747 mmHg 93%
    01:00 +13°C° 0.2 mm 2 mps 747 mmHg 93%
    02:00 +13°C° 0.1 mm 2 mps 747 mmHg 94%
    03:00 +13°C° 0.1 mm 2 mps 747 mmHg 94%
    04:00 +12°C° 0.1 mm 2 mps 747 mmHg 94%
    05:00 +13°C° 0.1 mm 2 mps 747 mmHg 93%
    06:00 +13°C° 0.1 mm 2 mps 747 mmHg 92%
    07:00 +13°C° 0.1 mm 2 mps 747 mmHg 91%
    08:00 +13°C° 0 mm 3 mps 747 mmHg 87%
    09:00 +14°C° 0 mm 3 mps 748 mmHg 82%
    10:00 +16°C° 0 mm 3 mps 748 mmHg 77%
    11:00 +17°C° 0 mm 3 mps 748 mmHg 73%
    12:00 +18°C° 0 mm 3 mps 748 mmHg 69%
    13:00 +19°C° 0 mm 3 mps 748 mmHg 65%
    14:00 +19°C° 0 mm 3 mps 748 mmHg 67%
    15:00 +19°C° 0 mm 3 mps 747 mmHg 68%
    16:00 +19°C° 0 mm 3 mps 747 mmHg 70%
    17:00 +18°C° 0 mm 2 mps 748 mmHg 74%
    18:00 +16°C° 0 mm 2 mps 748 mmHg 78%
    19:00 +15°C° 0 mm 1 mps 748 mmHg 82%
    20:00 +15°C° 0 mm 1 mps 748 mmHg 83%
    21:00 +15°C° 0 mm 1 mps 748 mmHg 85%
    22:00 +14°C° 0 mm 2 mps 748 mmHg 86%
    23:00 +14°C° 0 mm 2 mps 748 mmHg 87%

    26 September, Tuesday

    Time Temperature Precipitation Wind Pressure Humidity
    00:00 +14°C° 0 mm 2 mps 748 mmHg 88%
    01:00 +13°C° 0 mm 2 mps 748 mmHg 89%
    02:00 +13°C° 0 mm 2 mps 748 mmHg 90%
    03:00 +13°C° 0 mm 1 mps 748 mmHg 91%
    04:00 +13°C° 0 mm 1 mps 748 mmHg 92%
    05:00 +13°C° 0 mm 1 mps 748 mmHg 90%
    06:00 +13°C° 0 mm 1 mps 748 mmHg 89%
    07:00 +14°C° 0 mm 1 mps 748 mmHg 88%
    08:00 +15°C° 0 mm 1 mps 748 mmHg 81%
    09:00 +17°C° 0 mm 2 mps 748 mmHg 74%
    10:00 +19°C° 0 mm 2 mps 748 mmHg 66%
    11:00 +20°C° 0.1 mm 2 mps 748 mmHg 63%
    12:00 +21°C° 0.1 mm 3 mps 748 mmHg 60%
    13:00 +24°C° 0.1 mm 3 mps 748 mmHg 56%
    14:00 +24°C° 0.1 mm 3 mps 748 mmHg 58%
    15:00 +22°C° 0.1 mm 3 mps 748 mmHg 59%
    16:00 +23°C° 0.1 mm 2 mps 748 mmHg 61%
    17:00 +21°C° 0.1 mm 2 mps 748 mmHg 66%
    18:00 +19°C° 0.1 mm 2 mps 748 mmHg 71%
    19:00 +17°C° 0.1 mm 2 mps 748 mmHg 75%
    20:00 +17°C° 0.1 mm 2 mps 749 mmHg 77%
    21:00 +16°C° 0.1 mm 2 mps 749 mmHg 78%
    22:00 +16°C° 0.1 mm 2 mps 749 mmHg 79%
    23:00 +15°C° 0 mm 1 mps 749 mmHg 80%
    Show more